Location: Burbank
(38.7788°N, 114.0429°W)
Time: 14:46:22
(UTC+00:00)

Vanguard 2 Rocket - Pass Details

Date: 16 May 2026
Orbit: 553 x 3286 km, 32.9° (Epoch: 6 June)

Event Time Altitude Azimuth Distance (km) Brightness Sun altitude
Rises 20:44:46 0° 267° (W) 5,827 11.3 65.0°
Reaches altitude 10° 20:48:06 10° 265° (W) 5,113 11.2 64.5°
Maximum altitude 21:04:28 72° 186° (S) 3,277 11.4 62.1°
Drops below altitude 10° 21:24:27 10° 107° (ESE) 6,058 11.0 58.9°
Sets 21:28:49 0° 106° (ESE) 6,903 11.2 58.2°
